Location: DARK SKY Beskydy - Park tmavé oblohy, www.darkskybeskydy.cz
(49.4926°N, 18.5016°E)
Time: 13:29:12
(UTC+01:00)

Tiros 1 - All Passes

Search period start: 22 February 2024 00:00
Search period end: 03 March 2024 00:00
Orbit: 625 x 658 km, 48.4° (Epoch: 21 February)

Date Brightness Start Highest point End Pass type
(mag) Time Alt. Az. Time Alt. Az. Time Alt. Az.
22 Feb - 00:57:57 10° W 01:02:44 80° S 01:07:30 10° E night (unlit)
22 Feb - 02:40:04 10° W 02:44:41 51° SSW 02:49:15 10° SE visible
22 Feb - 04:22:52 10° W 04:26:03 18° SW 04:29:12 10° S visible
22 Feb - 20:21:42 10° SE 20:22:08 10° SE 20:22:34 10° SE night (unlit)
22 Feb - 21:58:52 10° SW 22:03:14 36° SSE 22:07:35 10° E night (unlit)
22 Feb - 23:40:14 10° WSW 23:45:00 73° S 23:49:45 10° E night (unlit)
23 Feb - 01:22:16 10° W 01:27:02 72° S 01:31:45 10° ESE night (unlit)
23 Feb - 03:04:29 10° W 03:08:46 33° SSW 03:12:59 10° SSE visible
23 Feb - 20:42:29 10° S 20:45:53 20° SE 20:49:19 10° E night (unlit)
23 Feb - 22:22:40 10° SW 22:27:20 54° SSE 22:32:00 10° E night (unlit)
24 Feb - 00:04:30 10° W 00:09:17 80° S 00:14:04 10° E night (unlit)
24 Feb - 01:46:36 10° W 01:51:16 55° SSW 01:55:53 10° ESE night (unlit)
24 Feb - 03:29:15 10° W 03:32:42 20° SW 03:36:07 10° S night (unlit)
24 Feb - 21:05:34 10° SSW 21:09:49 33° SSE 21:14:06 10° E night (unlit)
24 Feb - 22:46:47 10° WSW 22:51:33 71° S 22:56:18 10° E night (unlit)
25 Feb - 00:28:49 10° W 00:33:36 74° S 00:38:20 10° ESE night (unlit)
25 Feb - 02:11:00 10° W 02:15:22 36° SSW 02:19:42 10° SE night (unlit)
25 Feb - 03:55:42 10° SW 03:56:28 10° SW 03:57:13 10° SW night (unlit)
25 Feb - 19:49:22 10° S 19:52:32 18° SE 19:55:42 10° E visible
25 Feb - 21:29:17 10° SW 21:33:54 51° SSE 21:38:32 10° E night (unlit)
25 Feb - 23:11:03 10° W 23:15:51 80° S 23:20:37 10° E night (unlit)
26 Feb - 00:53:08 10° W 00:57:50 58° SSW 01:02:29 10° ESE night (unlit)
26 Feb - 02:35:40 10° W 02:39:20 22° SW 02:42:58 10° SSE night (unlit)
26 Feb - 20:12:16 10° SSW 20:16:25 30° SSE 20:20:35 10° E visible
26 Feb - 21:53:20 10° WSW 21:58:06 69° SSE 22:02:51 10° E night (unlit)
26 Feb - 23:35:21 10° W 23:40:08 76° S 23:44:54 10° ESE night (unlit)
27 Feb - 01:17:30 10° W 01:21:57 40° SSW 01:26:22 10° SE night (unlit)
27 Feb - 03:01:20 10° WSW 03:03:07 12° SW 03:04:52 10° SSW night (unlit)
27 Feb - 18:56:18 10° S 18:59:10 16° SE 19:02:01 10° ESE visible
27 Feb - 20:35:53 10° SW 20:40:28 47° SSE 20:45:04 10° E visible
27 Feb - 22:17:35 10° W 22:22:22 79° S 22:27:09 10° E night (unlit)
27 Feb - 23:59:39 10° W 00:04:23 62° SSW 00:09:04 10° ESE night (unlit)
28 Feb - 01:42:05 10° W 01:45:56 25° SW 01:49:45 10° SSE night (unlit)
28 Feb - 19:18:59 10° SSW 19:23:01 28° SSE 19:27:03 10° E visible
28 Feb - 20:59:54 10° WSW 21:04:38 66° SSE 21:09:23 10° E visible
28 Feb - 22:41:52 10° W 22:46:40 78° S 22:51:26 10° E night (unlit)
29 Feb - 00:24:00 10° W 00:28:31 43° SSW 00:33:01 10° SE night (unlit)
29 Feb - 02:07:24 10° WSW 02:09:45 14° SW 02:12:05 10° SSW night (unlit)
29 Feb - 18:03:18 10° SSE 18:05:46 14° SE 18:08:15 10° ESE visible
29 Feb - 19:42:30 10° SW 19:47:01 44° SSE 19:51:34 10° E visible
29 Feb - 21:24:06 10° W 21:28:53 78° S 21:33:41 10° E visible
29 Feb - 23:06:10 10° W 23:10:55 65° SSW 23:15:38 10° ESE night (unlit)
01 Mar - 00:48:31 10° W 00:52:31 27° SW 00:56:30 10° SSE night (unlit)
01 Mar - 18:25:43 10° SSW 18:29:35 25° SE 18:33:29 10° E visible
01 Mar - 20:06:27 10° WSW 20:11:10 62° SSE 20:15:54 10° E visible
01 Mar - 21:48:23 10° W 21:53:10 79° S 21:57:58 10° E visible
01 Mar - 23:30:30 10° W 23:35:04 46° SSW 23:39:37 10° SE night (unlit)
02 Mar - 01:13:36 10° WSW 01:16:22 15° SW 01:19:06 10° S night (unlit)
02 Mar - 17:10:26 10° SSE 17:12:24 12° SE 17:14:22 10° ESE daylight
02 Mar - 18:49:07 10° SW 18:53:34 40° SSE 18:58:03 10° E visible
02 Mar - 20:30:38 10° WSW 20:35:24 76° S 20:40:12 10° E visible
02 Mar - 22:12:40 10° W 22:17:26 68° SSW 22:22:11 10° ESE visible
